Location: Clyde
(45.1830°S, 169.3170°E)
Time: 10:43:15
(UTC+12:00)

Cosmos 2219 Rocket - Pass Details

Date: 24 January 2019
Orbit: 828 x 847 km, 71.0° (Epoch: 14 April)

Event Time Altitude Azimuth Distance (km) Brightness Sun altitude
Exits shadow 23:35:56 31° 45° (NE) 1,443 2.8 -18.3°
Maximum altitude 23:37:20 36° 75° (ENE) 1,329 2.8 -18.4°
Drops below altitude 10° 23:42:30 10° 139° (SE) 2,500 4.8 -18.9°
Sets 23:45:09 0° 147° (SSE) 3,445 5.7 -19.2°
